[[{"header":{"parameterUnit":"m.s-1","parameterCategory":1,"la1":30.2991,"la2":30.254,"lo1":-89.0895,"lo2":-89.0444,"dy":0.0017,"dx":0.0017,"nx":28,"ny":28,"refTime":"2025-06-03T09:00:00:Z","depth":0,"parameterNumber":2,"parameterNumberName":"U-component_of_WINDS"},"data":[0,0,0,0,0,0,0,0,0,0,0,0,0,0,0,0,0,0,0,0,0,0,0,0,0,0,0,0,0,0,0,0,0,0,0,0,0,0,0,0,0,0,0,0,0,0,0,0,0,0,0,0,0,0,0,0,0,0,-3.313,-3.313,0,-3.3145,-3.3145,-3.3145,-3.2987,-3.2983,-3.2978,-3.2974,-3.2994,-3.2998,-3.3003,0,0,0,0,0,0,0,0,0,0,0,0,0,-3.2969,-3.2973,-3.313,-3.313,-3.313,-3.3145,-3.3145,-3.3145,-3.2988,-3.2982,-3.2977,-3.2972,-3.2992,-3.2998,-3.3003,0,0,0,0,0,0,0,0,0,0,0,0,0,-3.3017,-3.2974,-3.313,-3.3053,-3.3047,-3.3145,-3.3145,-3.3145,-3.2989,-3.2982,-3.2976,-3.297,-3.299,-3.2997,-3.3004,-3.3177,0,0,-3.3025,-3.3028,0,0,0,0,0,0,0,0,-3.3015,-3.3023,-3.3065,-3.3059,-3.3052,-3.3057,-3.3095,-3.3156,-3.2991,-3.3011,-3.2974,-3.2966,-3.302,-3.3024,-3.3042,-3.3178,-3.3179,-3.3025,-3.303,-3.3033,-3.3034,0,0,0,0,0,0,0,-3.3012,-3.3022,-3.3136,-3.3065,-3.3058,-3.302,-3.3019,-3.3106,-3.3052,-3.3009,-3.2997,-3.3001,-3.3016,-3.3035,-3.3041,-3.3179,-3.3025,-3.3031,-3.3036,-3.3038,-3.3459,-3.3466,0,0,0,0,0,0,-3.3018,-3.302,-3.3135,-3.3136,-3.3017,-3.3028,-3.3027,-3.3062,-3.3051,-3.3043,-3.3007,-3.2994,-3.3027,-3.3033,-3.3041,-3.3244,-3.3032,-3.3039,-3.3043,-3.3452,-3.3461,-3.3468,0,0,0,0,0,0,-3.3015,-3.303,-3.3135,-3.3075,-3.3086,-3.3037,-3.3078,-3.3066,-3.3085,-3.3049,-3.3039,-3.3036,-3.3022,-3.3031,-3.3144,-3.3243,-3.3042,-3.3048,-3.3444,-3.3455,-3.3465,-3.3652,0,0,0,0,0,0,-3.3011,-3.303,-3.3094,-3.3078,-3.3089,-3.3238,-3.3084,-3.3071,-3.3097,-3.308,-3.3075,-3.3067,-3.3018,-3.3135,-3.3151,-3.3248,-3.3054,-3.3435,-3.3449,-3.3461,-3.3637,-3.3667,-3.3694,0,0,0,0,0,-3.3006,-3.3147,-3.3099,-3.3113,-3.3169,-3.3243,-3.325,-3.3189,-3.3106,-3.3171,-3.3147,-3.3068,-3.3229,-3.3148,-3.3165,-3.3266,-3.3428,-3.3445,-3.346,-3.3624,-3.3661,-3.3693,0,0,0,0,0,0,-3.3178,-3.3144,-3.3089,-3.3229,-3.324,-3.3216,-3.3297,-3.323,-3.3266,-3.3249,-3.3172,-3.3173,-3.3299,-3.3293,-3.3203,-3.3433,-3.3314,-3.3334,-3.3433,-3.3468,-3.3496,-3.3496,-3.3059,0,0,0,0,0,-3.3232,-3.3294,-3.3261,-3.3388,-3.3396,-3.3346,-3.3376,-3.3327,-3.3337,-3.3341,-3.3326,-3.3339,-3.3392,-3.3429,-3.3476,-3.3634,-3.3632,-3.3712,-3.374,-3.3764,-3.3783,-3.3868,-3.3904,-3.3521,-3.352,-3.352,0,0,-3.3345,-3.3334,-3.3378,-3.3422,-3.3425,-3.3493,-3.3351,-3.3428,-3.3478,-3.3353,-3.3459,-3.3448,-3.3458,-3.3595,-3.3654,-3.3594,-3.3888,-3.3784,-3.3804,-3.381,-3.3888,-3.3924,-3.3956,-3.3531,-3.3529,-3.3528,0,0,-3.3585,-3.3582,-3.3688,-3.3693,-3.3699,-3.3665,-3.369,-3.3677,-3.3665,-3.3769,-3.3677,-3.3735,-3.3829,-3.384,-3.3858,-3.4102,-3.4031,-3.4119,-3.427,-3.4353,-3.4383,-3.441,-3.4499,-3.4532,-3.4138,-3.4138,-3.4139,0,-3.3725,-3.3822,-3.3751,-3.3834,-3.3857,-3.3745,-3.3853,-3.3862,-3.3884,-3.3903,-3.3834,-3.3949,-3.3947,-3.4086,-3.4145,-3.4163,-3.4191,-3.4121,-3.4384,-3.441,-3.4434,-3.4518,-3.4552,-3.4149,-3.4148,-3.4147,-3.4146,0,-3.3995,-3.4063,-3.4148,-3.4171,-3.4203,-3.4298,-3.4243,-3.4284,-3.4232,-3.4206,-3.4314,-3.4308,-3.4353,-3.4381,-3.4332,-3.4513,-3.4476,-3.4397,-3.4277,-3.4483,-3.4561,-3.4592,-3.4165,-3.4161,-3.4158,-3.4155,0,0,-3.4346,-3.4327,-3.436,-3.4369,-3.4367,-3.4419,-3.451,-3.4552,-3.459,-3.4608,-3.4683,-3.4764,-3.4692,-3.4712,-3.4663,-3.4736,-3.4932,-3.4648,-3.4647,-3.4703,-3.5133,-3.5195,-3.5233,-3.4883,-3.4889,-3.4894,-3.5133,0,-3.4582,-3.4734,-3.4672,-3.4831,-3.4895,-3.4789,-3.4868,-3.4876,-3.4853,-3.4905,-3.488,-3.494,-3.4837,-3.4849,-3.4916,-3.4894,-3.5018,-3.4875,-3.4955,-3.4959,-3.4959,-3.5273,-3.5338,-3.5565,-3.5163,-3.5168,-3.5172,0,-3.4877,-3.4907,-3.5072,-3.5059,-3.5083,-3.5155,-3.5189,-3.5239,-3.5247,-3.5225,-3.5248,-3.5183,-3.5272,-3.515,-3.5273,-3.5178,-3.5206,-3.52,-3.5207,-3.5215,-3.508,-3.5292,-3.5635,-3.567,-3.5219,-3.5215,-3.5212,0,-3.512,-3.5201,-3.531,-3.5321,-3.5308,-3.5362,-3.5359,-3.5359,-3.5389,-3.5419,-3.5437,-3.5478,-3.5501,-3.5534,-3.5483,-3.5398,-3.5614,-3.5487,-3.5601,-3.5603,-3.5653,-3.5651,-3.6009,-3.5668,-3.5667,-3.5667,-3.5666,0,-3.5391,-3.5497,-3.5419,-3.5487,-3.5602,-3.553,-3.5647,-3.5633,-3.5634,-3.5698,-3.5609,-3.5671,-3.5597,-3.5653,-3.5613,-3.5722,-3.5733,-3.5719,-3.5708,-3.5729,-3.5731,-3.5749,-3.5733,-3.5676,-3.5674,-3.5672,-3.567,0,-3.5683,-3.5634,-3.5747,-3.5725,-3.5722,-3.5809,-3.579,-3.5853,-3.5823,-3.5905,-3.5921,-3.5875,-3.5936,-3.5887,-3.5947,-3.5919,-3.6065,-3.603,-3.6063,-3.6054,-3.6171,-3.6162,-3.6555,-3.6603,-3.6229,-3.6233,-3.6236,0,-3.586,-3.5939,-3.5925,-3.5961,-3.5964,-3.6023,-3.6052,-3.5984,-3.6018,-3.6033,-3.6094,-3.6147,-3.6186,-3.6289,-3.6262,-3.6308,-3.6274,-3.6409,-3.6281,-3.63,-3.6279,-3.6276,-3.6285,-3.6436,-3.644,-3.6444,-3.6447,0,-3.6181,-3.6153,-3.6198,-3.6236,-3.6273,-3.6299,-3.6318,-3.6353,-3.6284,-3.6327,-3.6388,-3.6418,-3.6478,-3.6533,-3.657,-3.6568,-3.6498,-3.6487,-3.6516,-3.654,-3.6556,-3.6551,-3.6136,-3.6479,-3.6476,-3.6473,-3.6472,-3.647,-3.6422,-3.6488,-3.6489,-3.6542,-3.6549,-3.6569,-3.6627,-3.6604,-3.6653,-3.6696,-3.6653,-3.6727,-3.6733,-3.6774,-3.6781,-3.6839,-3.6783,-3.6825,-3.6836,-3.6848,-3.6866,-3.6545,-3.6845,-3.6844,-3.6843,-3.6842,-3.6841,0,-3.6741,-3.6735,-3.6785,-3.6815,-3.6857,-3.6784,-3.6802,-3.6843,-3.6909,-3.6919,-3.6959,-3.7029,-3.7082,-3.7059,-3.7105,-3.7156,-3.7125,-3.717,-3.7167,-3.7169,-3.6912,-3.6883,-3.7195,-3.7195,-3.7195,-3.7195,-3.7195,-3.7194,-3.6912,-3.7019,-3.6991,-3.7102,-3.7095,-3.7166,-3.7183,-3.7202,-3.721,-3.7292,-3.7335,-3.7318,-3.7316,-3.7361,-3.7406,-3.7398,-3.7421,-3.7479,-3.746,-3.7221,-3.7186,-3.7153,-3.7126,-3.7484,-3.7484,-3.7712,-3.7714,-3.7715]},{"header":{"parameterUnit":"m.s-1","parameterCategory":1,"la1":30.2991,"la2":30.254,"lo1":-89.0895,"lo2":-89.0444,"dy":0.0017,"dx":0.0017,"nx":28,"ny":28,"refTime":"2025-06-03T09:00:00:Z","depth":0,"parameterNumber":3,"parameterNumberName":"V-component_of_WINDS"},"data":[0,0,0,0,0,0,0,0,0,0,0,0,0,0,0,0,0,0,0,0,0,0,0,0,0,0,0,0,0,0,0,0,0,0,0,0,0,0,0,0,0,0,0,0,0,0,0,0,0,0,0,0,0,0,0,0,0,0,-2.6675,-2.6675,0,-2.669,-2.669,-2.669,-2.6652,-2.6651,-2.665,-2.6649,-2.6661,-2.6663,-2.6664,0,0,0,0,0,0,0,0,0,0,0,0,0,-2.6613,-2.6614,-2.6675,-2.6675,-2.6676,-2.669,-2.669,-2.669,-2.6653,-2.6651,-2.665,-2.6648,-2.6661,-2.6662,-2.6664,0,0,0,0,0,0,0,0,0,0,0,0,0,-2.6635,-2.6615,-2.6675,-2.6659,-2.6657,-2.669,-2.669,-2.669,-2.6653,-2.6651,-2.6649,-2.6648,-2.666,-2.6662,-2.6664,-2.6712,0,0,-2.6671,-2.6672,0,0,0,0,0,0,0,0,-2.6634,-2.6637,-2.6661,-2.666,-2.6658,-2.6667,-2.6672,-2.6697,-2.6653,-2.6655,-2.6649,-2.6647,-2.6665,-2.6666,-2.6673,-2.6713,-2.6713,-2.6671,-2.6672,-2.6673,-2.6674,0,0,0,0,0,0,0,-2.6632,-2.6636,-2.6681,-2.6661,-2.666,-2.665,-2.6651,-2.6677,-2.6669,-2.6654,-2.6652,-2.6654,-2.6663,-2.6671,-2.6673,-2.6714,-2.6671,-2.6673,-2.6674,-2.6675,-2.6793,-2.6795,0,0,0,0,0,0,-2.6633,-2.6635,-2.668,-2.6681,-2.6642,-2.6652,-2.6654,-2.6666,-2.6669,-2.6667,-2.6655,-2.6652,-2.6668,-2.667,-2.6673,-2.6728,-2.6673,-2.6675,-2.6676,-2.6791,-2.6793,-2.6795,0,0,0,0,0,0,-2.6632,-2.6637,-2.668,-2.6658,-2.6662,-2.6655,-2.667,-2.6668,-2.6675,-2.667,-2.6668,-2.6664,-2.6667,-2.667,-2.6703,-2.6728,-2.6676,-2.6678,-2.6789,-2.6792,-2.6794,-2.684,0,0,0,0,0,0,-2.663,-2.6637,-2.6656,-2.6658,-2.6664,-2.671,-2.6671,-2.6669,-2.6679,-2.6675,-2.6677,-2.6676,-2.6665,-2.67,-2.6705,-2.673,-2.668,-2.6787,-2.679,-2.6794,-2.6837,-2.6844,-2.6851,0,0,0,0,0,-2.6628,-2.6668,-2.6657,-2.6663,-2.6687,-2.6712,-2.6715,-2.6702,-2.6681,-2.6699,-2.6696,-2.6676,-2.6725,-2.6704,-2.6709,-2.6735,-2.6785,-2.6789,-2.6793,-2.6833,-2.6843,-2.6851,0,0,0,0,0,0,-2.6668,-2.6668,-2.6656,-2.6698,-2.6705,-2.6706,-2.6728,-2.6713,-2.6726,-2.6721,-2.6705,-2.6706,-2.6741,-2.6742,-2.6718,-2.6781,-2.6751,-2.6757,-2.678,-2.6789,-2.6796,-2.6795,-2.6681,0,0,0,0,0,-2.6682,-2.6703,-2.6702,-2.6739,-2.6743,-2.6735,-2.6746,-2.6736,-2.6742,-2.6745,-2.6744,-2.675,-2.6767,-2.6778,-2.6793,-2.6837,-2.6836,-2.6858,-2.6865,-2.6871,-2.6876,-2.6898,-2.6907,-2.6809,-2.6809,-2.6809,0,0,-2.671,-2.6713,-2.6727,-2.6747,-2.6751,-2.6772,-2.6738,-2.6762,-2.6777,-2.6748,-2.6779,-2.6779,-2.6784,-2.6823,-2.684,-2.6824,-2.6903,-2.6876,-2.6881,-2.6882,-2.6903,-2.6912,-2.692,-2.6812,-2.6812,-2.6811,0,0,-2.6773,-2.6778,-2.6809,-2.6814,-2.6822,-2.6816,-2.6824,-2.6826,-2.6825,-2.6856,-2.6834,-2.6852,-2.6881,-2.6886,-2.6893,-2.6957,-2.6939,-2.6963,-2.7,-2.7022,-2.703,-2.7037,-2.7059,-2.7067,-2.6968,-2.6968,-2.6968,0,-2.6807,-2.6839,-2.6826,-2.6852,-2.6861,-2.6836,-2.6867,-2.6872,-2.6884,-2.689,-2.6873,-2.691,-2.6912,-2.6951,-2.6966,-2.6973,-2.698,-2.6962,-2.703,-2.7037,-2.7043,-2.7063,-2.7072,-2.697,-2.697,-2.697,-2.697,0,-2.688,-2.6902,-2.6926,-2.6939,-2.6951,-2.6979,-2.6969,-2.6983,-2.6972,-2.6968,-2.6999,-2.7001,-2.7016,-2.7025,-2.7014,-2.7062,-2.7052,-2.7033,-2.7002,-2.7055,-2.7074,-2.7082,-2.6974,-2.6973,-2.6973,-2.6972,0,0,-2.6966,-2.6973,-2.6981,-2.6987,-2.6993,-2.701,-2.7037,-2.7052,-2.7063,-2.7072,-2.7093,-2.7119,-2.7101,-2.7108,-2.7098,-2.7118,-2.7167,-2.7096,-2.7096,-2.7108,-2.7219,-2.7232,-2.7242,-2.7156,-2.7158,-2.7159,-2.7218,0,-2.7027,-2.7074,-2.7063,-2.7108,-2.7128,-2.7106,-2.7129,-2.7135,-2.7132,-2.7148,-2.7144,-2.7162,-2.7139,-2.7143,-2.7161,-2.7157,-2.7189,-2.7153,-2.7174,-2.7175,-2.7172,-2.7252,-2.7266,-2.7321,-2.7225,-2.7227,-2.7228,0,-2.7104,-2.7116,-2.7164,-2.7167,-2.7175,-2.7196,-2.7209,-2.7225,-2.7231,-2.7228,-2.7236,-2.7222,-2.7247,-2.7218,-2.7252,-2.7227,-2.7235,-2.7235,-2.7237,-2.7237,-2.7203,-2.7253,-2.7339,-2.7347,-2.7239,-2.7238,-2.7238,0,-2.716,-2.719,-2.7222,-2.7227,-2.7232,-2.7247,-2.725,-2.7254,-2.7264,-2.7275,-2.7281,-2.7295,-2.7302,-2.7313,-2.7303,-2.7282,-2.7338,-2.7307,-2.7335,-2.7335,-2.7346,-2.7345,-2.7434,-2.7354,-2.7354,-2.7354,-2.7354,0,-2.7228,-2.7258,-2.7247,-2.7267,-2.7299,-2.7287,-2.7318,-2.7318,-2.7323,-2.7341,-2.7323,-2.734,-2.7326,-2.7342,-2.7335,-2.7363,-2.7367,-2.7364,-2.7361,-2.7365,-2.7365,-2.7369,-2.7364,-2.7356,-2.7355,-2.7355,-2.7355,0,-2.7296,-2.7291,-2.7324,-2.7326,-2.7327,-2.7351,-2.7352,-2.737,-2.7366,-2.739,-2.7394,-2.7388,-2.7406,-2.7397,-2.7416,-2.7411,-2.7447,-2.744,-2.7445,-2.7443,-2.747,-2.7467,-2.7563,-2.7574,-2.7489,-2.749,-2.749,0,-2.7339,-2.7361,-2.7366,-2.7378,-2.7382,-2.7401,-2.7411,-2.7399,-2.741,-2.742,-2.7436,-2.7452,-2.7465,-2.7494,-2.7491,-2.7505,-2.7497,-2.753,-2.7499,-2.7502,-2.7496,-2.7494,-2.7495,-2.7535,-2.7536,-2.7537,-2.7538,0,-2.7415,-2.7411,-2.7427,-2.7442,-2.7455,-2.7465,-2.7475,-2.7485,-2.7474,-2.7487,-2.7506,-2.7516,-2.7535,-2.7551,-2.7563,-2.7565,-2.7549,-2.7548,-2.7554,-2.7557,-2.7559,-2.7557,-2.7461,-2.7545,-2.7544,-2.7544,-2.7543,-2.7543,-2.7471,-2.7489,-2.7496,-2.7513,-2.752,-2.7529,-2.7545,-2.7544,-2.756,-2.7575,-2.7567,-2.7589,-2.7594,-2.7609,-2.7613,-2.7629,-2.7616,-2.7626,-2.7628,-2.763,-2.7633,-2.7558,-2.7631,-2.7631,-2.7631,-2.7631,-2.763,0,-2.7544,-2.7548,-2.7564,-2.7578,-2.7592,-2.7578,-2.7587,-2.7599,-2.7619,-2.7626,-2.7639,-2.766,-2.7675,-2.7674,-2.7688,-2.7701,-2.7694,-2.7705,-2.7703,-2.7703,-2.7645,-2.7637,-2.771,-2.771,-2.771,-2.771,-2.771,-2.771,-2.7584,-2.7614,-2.7611,-2.7644,-2.7647,-2.7668,-2.7675,-2.7683,-2.7688,-2.7713,-2.7726,-2.7725,-2.7729,-2.7743,-2.7757,-2.7756,-2.7761,-2.7774,-2.7771,-2.7716,-2.7708,-2.77,-2.7692,-2.7776,-2.7776,-2.7827,-2.7828,-2.7828]}]]